Location: Unspecified
(0.0000°N, 0.0000°E)
Time: 21:37:25
(UTC+00:00)

Hubble Space Telescope - Pass Details

Date: 21 January 2020
Orbit: 536 x 540 km, 28.5° (Epoch: 24 February)

Event Time Altitude Azimuth Distance (km) Brightness Sun altitude
Rises 05:21:42 0° 220° (SW) 2,671 4.1 -11.6°
Reaches altitude 10° 05:24:17 10° 206° (SSW) 1,780 3.4 -11.0°
Maximum altitude 05:27:40 24° 151° (SSE) 1,116 3.0 -10.2°
Drops below altitude 10° 05:31:03 10° 95° (E) 1,778 4.9 -9.4°
Sets 05:33:37 0° 82° (E) 2,668 5.5 -8.8°
